CAPE
0 21 0 0 0 0 0 0 0 0 0 1 2 0 0 0 3 12 24 4 0 0 0 0 0 0 0 0 0 0 0 0
0 6 0 0 0 0 0 0 0 0 2 1 3 2 1 1 0 0 0 1 0 0 0 0 0 0 0 0 0 0 0 0
0 11 0 0 0 0 0 0 0 1 0 2 0 0 1 0 0 0 0 0 0 0 0 5 14 0 0 0 0 0 0 0
0 8 1 0 0 0 1 0 1 0 0 0 0 0 1 1 1 1 1 0 0 10 1 14 21 33 5 0 0 0 0 0
0 0 0 0 0 0 0 0 0 0 0 0 0 2 3 1 0 0 0 0 0 0 9 6 7 41 17 0 0 0 0 0
0 0 3 0 0 1 0 0 0 0 0 0 0 2 0 2 0 0 0 0 0 0 0 1 0 18 1 0 11 0 0 0
0 0 5 0 0 0 0 0 0 0 0 0 0 0 0 1 0 0 0 0 0 0 0 0 0 1 1 0 0 0 0 0
0 0 0 0 0 0 0 0 1 0 0 0 0 0 0 0 0 0 0 0 0 0 0 0 0 0 3 1 0 3 14 30
0 0 0 0 0 0 0 0 0 0 1 0 0 0 0 0 0 0 0 0 0 0 0 0 0 0 1 22 7 5 32 40
0 0 0 0 0 0 0 0 0 0 0 0 0 0 0 0 0 0 0 0 0 0 0 1 0 7 11 16 22 40 33 17
0 0 0 0 0 0 0 0 0 0 0 0 0 0 0 0 0 0 0 0 0 0 0 0 0 0 3 15 17 14 19 12
0 0 0 0 0 0 0 0 0 0 1 0 0 0 0 0 0 0 0 0 0 0 0 0 0 0 0 0 4 1 1 6
0 0 0 0 0 0 0 0 0 0 0 0 0 0 0 0 1 0 0 0 0 0 0 0 0 0 0 0 1 1 0 0
0 0 0 0 0 0 0 0 0 0 0 0 0 0 0 0 0 1 1 0 0 0 0 0 0 0 0 0 0 0 0 0
0 0 0 0 0 0 0 0 0 0 0 0 0 0 0 0 0 0 0 1 1 0 0 0 0 0 0 0 0 0 0 0
0 0 0 0 0 0 0 0 0 0 0 0 0 0 0 0 0 0 0 0 1 0 0 0 0 0 0 0 0 0 0 0
0 0 0 0 0 0 0 0 0 0 0 0 0 0 0 0 0 0 0 0 0 0 1 1 0 0 0 0 0 0 0 0
0 0 0 0 0 0 0 0 0 0 0 0 0 0 0 0 0 0 0 0 0 0 0 0 0 0 0 0 0 0 0 3
0 0 0 0 0 0 0 0 0 0 0 0 0 0 1 1 0 1 0 0 0 0 1 0 1 3 0 0 0 0 0 0
CIN
0 -689 -13 0 0 0 0 0 0 0 0 0 0 0 -0 0 -40 -39 -41 -52 0 0 0 0 0 0 0 0 0 0 0 0
0 -657 0 0 0 0 0 0 0 0 -0 -5 -2 -0 0 0 0 0 0 -55 0 0 0 0 0 0 0 0 0 0 0 0
0 -682 0 0 0 0 0 0 0 0 0 -8 0 0 0 -0 0 0 0 0 0 0 0 -113 -130 0 0 0 0 0 0 0
0 -663 -415 0 0 0 0 0 0 -0 0 0 0 0 0 0 0 0 0 0 0 -28 -7 -45 -109 -128 -131 0 0 0 0 0
0 0 0 0 -0 -0 0 -0 -0 -0 0 -0 0 -0 -0 -0 -0 -0 0 0 0 0 -58 -49 -104 -113 -151 -58 0 0 0 0
0 0 -700 0 -0 0 0 0 0 0 -3 0 0 -0 -1 -2 -6 0 -0 0 0 0 0 -44 0 -146 -119 -89 -154 -8 0 0
0 0 -665 0 0 -0 0 0 0 0 -0 0 0 -0 0 -0 -0 -0 -0 0 0 0 0 -31 0 -77 -89 0 0 0 0 0
0 0 0 0 0 0 -0 0 0 0 0 -0 0 0 0 0 -0 0 -0 0 0 0 0 0 0 0 -67 -48 -56 -95 -128 -170
0 0 0 0 0 0 -0 -0 0 0 -0 -0 0 0 0 0 0 0 0 0 0 0 0 0 0 -75 -73 -123 -112 -112 -179 -178
0 0 0 0 -0 -0 -0 -0 -0 0 -0 -0 -0 0 0 0 0 0 0 0 0 0 0 -117 0 -102 -120 -152 -169 -155 -163 -185
0 0 0 0 0 0 0 -0 0 0 0 -0 -0 -0 0 0 0 0 0 0 0 0 0 0 -46 0 -123 -135 -127 -151 -141 -147
0 0 0 0 0 0 0 0 -0 -0 -0 -0 -0 0 -1 -9 0 0 0 0 0 0 0 0 0 -2 0 -26 -102 -37 -44 -123
0 0 0 0 0 0 0 0 0 -0 -0 -0 0 -9 -9 -4 -5 0 0 0 0 0 0 0 0 0 0 0 -95 -86 -120 -2
0 0 0 0 0 0 0 0 0 0 0 0 0 0 0 0 -5 -7 -6 0 0 0 0 0 0 0 0 0 0 0 0 0
0 0 0 0 0 0 0 0 0 0 0 -0 0 0 0 0 0 0 -7 -13 -17 -20 0 0 0 0 0 0 0 0 0 0
0 0 0 0 0 0 0 0 0 0 0 0 0 0 0 0 0 0 0 -1 -8 -15 0 0 0 0 0 0 0 0 0 0
0 0 0 0 0 0 0 0 0 0 0 0 0 0 0 0 0 0 0 0 0 0 -3 -5 0 0 0 0 0 0 -3 -2
0 0 0 0 0 0 0 0 0 0 0 0 0 0 0 0 0 0 0 0 0 -0 -0 -1 -5 -3 0 0 0 0 -1 -1
0 0 0 0 0 0 0 0 0 0 0 0 0 0 0 0 0 0 -0 0 0 -0 -1 -1 -1 -324 0 0 0 0 0 0
Wind_Speed
14 15 14 14 14 14 12 7 8 7 5 5 4 2 2 3 6 8 11 10 13 10 9 10 9 10 8 6 4 3 4 5
12 14 14 14 12 14 13 11 8 7 5 5 3 4 3 3 3 7 7 10 11 12 9 8 11 10 11 10 5 10 5 5
14 14 14 16 16 15 14 14 12 8 7 4 3 3 3 5 4 7 7 9 11 11 12 8 10 8 8 8 6 4 3 6
16 17 16 14 16 16 16 16 16 10 8 5 4 3 2 3 5 5 5 6 6 9 11 9 8 9 8 6 5 8 5 3
19 18 16 17 16 14 15 15 15 11 11 8 10 7 6 5 5 5 5 5 4 6 9 9 6 6 7 5 4 3 6 10
21 23 20 16 16 15 13 14 14 13 12 10 8 8 6 5 6 9 10 8 5 5 6 10 6 5 5 3 2 3 4 5
22 15 15 14 13 15 12 13 13 13 12 12 12 11 9 8 8 8 7 9 6 7 6 7 6 7 8 9 9 6 7 6
17 18 17 16 17 18 15 14 12 14 14 13 12 11 11 11 11 10 12 9 9 11 10 9 8 8 10 12 13 10 6 5
20 20 19 18 19 20 18 18 17 16 14 14 12 13 9 8 10 8 10 10 11 11 10 10 14 13 12 10 10 9 6 5
20 18 18 17 18 19 19 19 16 17 16 12 13 11 12 10 11 8 8 9 9 8 10 10 10 11 11 9 6 7 6 7
16 18 17 14 15 14 14 15 17 16 15 12 11 11 12 11 9 12 11 9 9 10 9 11 11 10 10 10 8 8 10 8
9 11 11 11 13 13 13 13 14 15 16 15 14 13 12 10 11 11 12 11 11 12 12 12 13 12 12 12 12 11 12 11
10 10 8 5 4 10 14 13 13 14 14 13 13 13 12 13 12 12 13 14 14 14 14 13 13 13 12 13 14 13 14 15
20 19 16 12 8 6 5 2 3 9 13 14 13 14 14 14 15 14 13 14 15 15 16 16 15 15 15 15 15 15 15 15
18 16 14 14 13 12 12 8 1 5 6 8 11 14 15 15 15 16 15 15 15 15 16 17 17 16 17 17 16 17 18 18
17 14 13 13 14 12 12 12 12 7 7 9 9 8 10 11 12 13 15 15 16 16 15 16 16 17 15 19 18 18 18 18
18 16 16 16 14 13 13 13 13 12 13 11 6 5 10 11 12 13 15 16 16 16 18 17 17 14 17 18 18 17 19 19
14 14 13 13 12 11 12 11 11 13 13 13 13 12 11 7 10 13 15 16 14 18 18 18 19 20 19 18 21 19 19 19
15 11 11 10 9 10 10 11 12 12 13 13 13 13 11 11 11 10 12 13 16 16 18 18 17 17 15 22 23 19 20 21
Wind_Direction
167 161 152 149 151 145 142 146 137 133 136 132 140 117 100 96 137 149 157 158 161 153 156 153 156 160 167 163 154 153 169 161
158 158 151 148 155 149 150 149 154 148 154 155 148 160 151 129 149 151 149 164 164 163 163 159 167 163 173 177 160 171 178 159
159 162 159 166 161 157 156 158 163 164 167 159 128 137 169 183 165 167 161 154 162 166 170 172 173 164 169 172 156 148 145 180
168 170 171 162 165 165 163 163 162 164 159 137 127 113 107 159 177 180 166 139 142 169 180 181 168 167 167 161 169 172 142 200
171 169 172 173 170 164 162 160 159 161 156 167 165 172 176 196 179 178 163 161 147 158 168 173 160 170 156 156 165 197 139 178
177 182 174 168 163 166 165 163 160 160 168 171 166 175 174 152 172 171 188 178 172 165 176 165 157 164 141 148 169 196 180 143
183 168 155 159 159 166 165 166 167 162 170 172 175 173 171 163 167 175 179 180 180 186 162 180 177 160 174 179 214 203 232 162
162 161 160 164 166 169 172 171 172 169 172 175 181 182 177 178 177 179 176 177 193 203 177 170 188 189 183 186 193 220 201 171
169 169 170 170 166 171 174 178 180 181 176 178 181 187 189 186 188 189 191 190 196 194 195 181 183 194 201 187 186 192 179 172
170 171 176 167 166 175 177 176 178 184 179 173 184 187 188 192 189 188 194 197 198 190 191 196 197 192 188 183 181 194 185 191
170 177 175 166 168 169 172 177 175 180 175 184 186 191 196 196 190 197 196 201 203 197 192 200 194 196 198 194 195 194 199 203
171 180 167 155 157 164 171 175 172 176 184 187 188 193 197 196 198 201 205 203 203 210 204 206 208 204 201 200 211 205 208 210
84 74 68 68 145 168 170 173 173 179 184 188 193 190 198 203 207 203 207 211 210 211 212 212 212 215 217 217 212 212 213 217
60 60 60 59 63 78 72 15 236 192 186 189 193 193 195 202 205 209 208 210 213 215 218 216 216 216 218 220 222 225 229 229
56 50 51 51 46 41 39 35 192 181 211 214 214 207 202 204 204 205 209 210 215 215 217 221 221 222 224 223 221 226 231 231
53 45 44 41 41 31 28 27 16 10 212 216 234 234 223 219 225 223 217 210 213 218 220 222 223 224 223 226 228 230 231 233
56 41 37 37 32 28 24 22 13 21 29 30 18 268 221 225 227 222 222 225 223 218 218 222 224 229 226 218 224 230 232 233
66 50 47 37 24 32 38 24 21 27 20 19 18 9 10 322 246 229 231 231 229 230 231 224 223 229 218 214 216 231 235 234
53 51 43 36 29 36 46 34 34 34 28 19 7 358 353 345 341 331 257 233 229 231 231 231 238 239 213 211 215 226 235 238